User: anonymous   Login
Location: Mactaquac Provincial Park
(45.9573°N, 66.8897°W)
Time: 23:33:26
(UTC-03:00)
Language:

Cosmos 1867 - Orbit

View from above orbital plane
View from above orbital plane
View from above satellite
View from above satellite

Ground track
Ground track

The orbit data is extracted from the following two-line orbital elements,

1 18187U 87060A   15242.19693165 -.00000063  00000-0  14066-4 0  9991
2 18187 065.0094 267.4302 0017733 281.7477 078.1617 14.31061124469981
Epoch (UTC): 30 August 2015 04:43:34
Eccentricity: 0.0017733
inclination: 65.0094°
perigee height: 775 km
apogee height: 801 km
right ascension of ascending node: 267.4302°
argument of perigee: 281.7477°
revolutions per day: 14.31061124
mean anomaly at epoch: 78.1617°
orbit number at epoch: 46998

The dashed part of the orbit path shows where the satellite is in the earth's shadow,  

DLR